Location: Franzen
(48.6167°N, 15.3833°E)
Time: 13:04:18
(UTC+00:00)

SPOT 3 Rocket - Pass Details

Date: 22 April 2021
Orbit: 778 x 795 km, 98.7° (Epoch: 16 May)

Event Time Altitude Azimuth Distance (km) Brightness Sun altitude
Exits shadow 19:40:39 14° 171° (S) 2,061 5.3 -15.1°
Maximum altitude 19:45:06 75° 256° (WSW) 818 3.7 -15.7°
Drops below altitude 10° 19:50:18 10° 342° (NNW) 2,354 6.9 -16.3°
Sets 19:52:38 0° 345° (NNW) 3,284 7.8 -16.6°
